| time (UTC) | temp F | wind direction | speed MPH | gust MPH | rain 1hr in | rain 24hr in | rain mn in | humidity % | barometer mb |
| 20260906201503 | 90 | 169 | 9.0 | 26.0 | 0.00 | 0.03 | 0.03 | 49 | 1015.8 |
| 20260906201003 | 90 | 163 | 6.0 | 20.0 | 0.00 | 0.03 | 0.03 | 48 | 1015.8 |
| 20260906200503 | 90 | 165 | 6.0 | 15.0 | 0.00 | 0.03 | 0.03 | 51 | 1016.0 |
| 20260906200003 | 89 | 156 | 6.0 | 14.0 | 0.00 | 0.03 | 0.03 | 50 | 1015.9 |
| 20260906195503 | 89 | 147 | 6.0 | 18.0 | 0.00 | 0.03 | 0.03 | 50 | 1016.0 |
| 20260906195003 | 89 | 151 | 6.0 | 18.0 | 0.00 | 0.03 | 0.03 | 51 | 1016.0 |
| 20260906194503 | 89 | 157 | 6.0 | 17.0 | 0.00 | 0.03 | 0.03 | 50 | 1016.2 |
| 20260906194003 | 89 | 159 | 6.0 | 15.0 | 0.00 | 0.03 | 0.03 | 50 | 1016.0 |
| 20260906193503 | 89 | 163 | 7.0 | 15.0 | 0.00 | 0.03 | 0.03 | 50 | 1016.2 |
| 20260906193003 | 89 | 166 | 8.0 | 19.0 | 0.00 | 0.03 | 0.03 | 48 | 1016.3 |
| 20260906192503 | 89 | 164 | 8.0 | 21.0 | 0.00 | 0.03 | 0.03 | 49 | 1016.4 |
| 20260906192003 | 89 | 164 | 8.0 | 22.0 | 0.00 | 0.03 | 0.03 | 48 | 1016.3 |
| 20260906191503 | 89 | 162 | 7.0 | 22.0 | 0.00 | 0.03 | 0.03 | 48 | 1016.3 |
| 20260906191003 | 89 | 162 | 7.0 | 24.0 | 0.00 | 0.03 | 0.03 | 48 | 1016.3 |
| 20260906190504 | 89 | 164 | 7.0 | 24.0 | 0.00 | 0.03 | 0.03 | 49 | 1016.4 |
| 20260906190003 | 89 | 168 | 9.0 | 23.0 | 0.00 | 0.03 | 0.03 | 50 | 1016.5 |
| 20260906185503 | 88 | 169 | 8.0 | 23.0 | 0.00 | 0.03 | 0.03 | 51 | 1016.5 |
| 20260906185003 | 88 | 162 | 6.0 | 20.0 | 0.00 | 0.03 | 0.03 | 51 | 1016.6 |
| 20260906184503 | 88 | 168 | 6.0 | 18.0 | 0.00 | 0.03 | 0.03 | 53 | 1016.6 |
| 20260906184003 | 88 | 168 | 7.0 | 18.0 | 0.00 | 0.03 | 0.03 | 53 | 1016.6 |
| 20260906183503 | 88 | 161 | 6.0 | 17.0 | 0.00 | 0.03 | 0.03 | 54 | 1016.6 |
| 20260906183003 | 87 | 163 | 7.0 | 18.0 | 0.00 | 0.03 | 0.03 | 56 | 1016.6 |
| 20260906182503 | 87 | 167 | 8.0 | 18.0 | 0.00 | 0.03 | 0.03 | 55 | 1016.7 |
| 20260906182003 | 86 | 168 | 8.0 | 18.0 | 0.00 | 0.03 | 0.03 | 55 | 1016.8 |
| 20260906181503 | 86 | 172 | 9.0 | 22.0 | 0.00 | 0.03 | 0.03 | 56 | 1016.9 |
| 20260906181003 | 85 | 174 | 9.0 | 22.0 | 0.00 | 0.03 | 0.03 | 57 | 1017.0 |
| 20260906180503 | 85 | 174 | 8.0 | 20.0 | 0.00 | 0.03 | 0.03 | 58 | 1017.2 |
| 20260906180003 | 85 | 170 | 6.0 | 20.0 | 0.00 | 0.03 | 0.03 | 58 | 1017.2 |
| 20260906175503 | 85 | 164 | 6.0 | 18.0 | 0.00 | 0.03 | 0.03 | 59 | 1017.3 |
| 20260906175003 | 84 | 166 | 6.0 | 18.0 | 0.00 | 0.03 | 0.03 | 60 | 1017.5 |
| 20260906174503 | 84 | 160 | 4.0 | 18.0 | 0.00 | 0.03 | 0.03 | 61 | 1017.5 |
| 20260906174003 | 83 | 151 | 4.0 | 10.0 | 0.00 | 0.03 | 0.03 | 63 | 1017.6 |
| 20260906173503 | 83 | 149 | 5.0 | 15.0 | 0.00 | 0.03 | 0.03 | 63 | 1017.7 |
| 20260906173003 | 83 | 145 | 4.0 | 15.0 | 0.00 | 0.03 | 0.03 | 63 | 1017.9 |
| 20260906172503 | 83 | 142 | 2.0 | 10.0 | 0.00 | 0.03 | 0.03 | 64 | 1018.0 |
| 20260906172003 | 82 | 156 | 3.0 | 15.0 | 0.00 | 0.03 | 0.03 | 66 | 1017.9 |
| 20260906171503 | 81 | 156 | 4.0 | 15.0 | 0.00 | 0.03 | 0.03 | 66 | 1018.1 |
| 20260906171003 | 81 | 146 | 4.0 | 11.0 | 0.00 | 0.03 | 0.03 | 66 | 1018.3 |
| 20260906170503 | 81 | 142 | 4.0 | 16.0 | 0.00 | 0.03 | 0.03 | 66 | 1018.3 |
| 20260906170003 | 81 | 146 | 4.0 | 16.0 | 0.00 | 0.03 | 0.03 | 67 | 1018.3 |
| 20260906165503 | 81 | 145 | 3.0 | 10.0 | 0.00 | 0.03 | 0.03 | 68 | 1018.4 |
| 20260906165003 | 81 | 143 | 2.0 | 8.0 | 0.00 | 0.03 | 0.03 | 70 | 1018.5 |
| 20260906164503 | 80 | 136 | 1.0 | 7.0 | 0.00 | 0.03 | 0.03 | 71 | 1018.7 |
| 20260906164003 | 80 | 131 | 1.0 | 7.0 | 0.00 | 0.03 | 0.03 | 74 | 1018.7 |
| 20260906163503 | 79 | 133 | 2.0 | 7.0 | 0.00 | 0.03 | 0.03 | 73 | 1018.8 |
| 20260906163003 | 79 | 120 | 2.0 | 6.0 | 0.00 | 0.03 | 0.03 | 73 | 1018.8 |
| 20260906162503 | 79 | 107 | 1.0 | 5.0 | 0.00 | 0.03 | 0.03 | 74 | 1018.7 |
| 20260906162003 | 78 | 114 | 1.0 | 5.0 | 0.00 | 0.03 | 0.03 | 76 | 1018.7 |
| 20260906161503 | 78 | 111 | 1.0 | 5.0 | 0.00 | 0.03 | 0.03 | 78 | 1018.7 |
| 20260906161003 | 77 | 103 | 2.0 | 4.0 | 0.00 | 0.03 | 0.03 | 80 | 1018.7 |
| 20260906160503 | 76 | 101 | 1.0 | 4.0 | 0.00 | 0.03 | 0.03 | 80 | 1018.8 |
| 20260906160003 | 76 | 100 | 1.0 | 4.0 | 0.00 | 0.03 | 0.03 | 82 | 1018.8 |
| 20260906155503 | 75 | 101 | 1.0 | 5.0 | 0.00 | 0.03 | 0.03 | 83 | 1018.8 |
| 20260906155003 | 75 | 100 | 0.0 | 5.0 | 0.00 | 0.03 | 0.03 | 82 | 1018.8 |
| 20260906154503 | 75 | 93 | 1.0 | 3.0 | 0.00 | 0.03 | 0.03 | 83 | 1018.8 |
| 20260906154003 | 75 | 89 | 1.0 | 3.0 | 0.00 | 0.03 | 0.03 | 83 | 1018.9 |
| 20260906153503 | 74 | 85 | 0.0 | 3.0 | 0.00 | 0.03 | 0.03 | 86 | 1018.9 |
| 20260906153003 | 74 | 90 | 0.0 | 3.0 | 0.00 | 0.03 | 0.03 | 85 | 1018.9 |
| 20260906152503 | 74 | 98 | 0.0 | 2.0 | 0.00 | 0.03 | 0.03 | 87 | 1018.8 |
| 20260906152003 | 73 | 100 | 0.0 | 2.0 | 0.00 | 0.03 | 0.03 | 88 | 1019.0 |
| 20260906151504 | 73 | 97 | 1.0 | 2.0 | 0.00 | 0.03 | 0.03 | 87 | 1018.9 |
| 20260906151003 | 72 | 97 | 1.0 | 3.0 | 0.00 | 0.03 | 0.03 | 89 | 1019.0 |
| 20260906150503 | 72 | 102 | 1.0 | 3.0 | 0.00 | 0.03 | 0.03 | 90 | 1018.8 |
| 20260906150003 | 72 | 110 | 0.0 | 3.0 | 0.00 | 0.03 | 0.03 | 91 | 1018.7 |
| 20260906145503 | 71 | 98 | 1.0 | 3.0 | 0.00 | 0.03 | 0.03 | 92 | 1018.8 |
| 20260906145003 | 71 | 114 | 1.0 | 4.0 | 0.00 | 0.03 | 0.03 | 92 | 1018.8 |
| 20260906144503 | 70 | 127 | 0.0 | 4.0 | 0.00 | 0.03 | 0.03 | 93 | 1018.7 |
| 20260906144003 | 70 | 101 | 0.0 | 6.0 | 0.00 | 0.03 | 0.03 | 93 | 1018.6 |
| 20260906143503 | 70 | 89 | 0.0 | 6.0 | 0.00 | 0.03 | 0.03 | 93 | 1018.5 |
| 20260906143003 | 70 | 110 | 0.0 | 3.0 | 0.00 | 0.03 | 0.03 | 93 | 1018.5 |
| 20260906142503 | 70 | 134 | 0.0 | 3.0 | 0.00 | 0.03 | 0.03 | 94 | 1018.5 |
| 20260906142003 | 70 | 99 | 0.0 | 3.0 | 0.00 | 0.03 | 0.03 | 94 | 1018.5 |
| 20260906141503 | 70 | 109 | 0.0 | 4.0 | 0.00 | 0.03 | 0.03 | 95 | 1018.4 |
| 20260906141003 | 69 | 103 | 1.0 | 4.0 | 0.00 | 0.03 | 0.03 | 94 | 1018.6 |
| 20260906140503 | 69 | 105 | 1.0 | 3.0 | 0.00 | 0.03 | 0.03 | 94 | 1018.7 |
| 20260906140003 | 69 | 110 | 1.0 | 4.0 | 0.00 | 0.03 | 0.03 | 94 | 1018.7 |
| 20260906135503 | 69 | 107 | 0.0 | 4.0 | 0.00 | 0.03 | 0.03 | 94 | 1018.6 |
| 20260906135003 | 69 | 102 | 0.0 | 2.0 | 0.00 | 0.03 | 0.03 | 94 | 1018.6 |
| 20260906134503 | 69 | 153 | 0.0 | 2.0 | 0.00 | 0.03 | 0.03 | 95 | 1018.7 |
| 20260906134003 | 69 | 109 | 0.0 | 2.0 | 0.00 | 0.03 | 0.03 | 94 | 1018.5 |
| 20260906133503 | 69 | 94 | 0.0 | 2.0 | 0.01 | 0.03 | 0.03 | 94 | 1018.5 |
| 20260906133003 | 68 | 0 | 0.0 | 0.0 | 0.01 | 0.03 | 0.03 | 94 | 1018.4 |
| 20260906132504 | 69 | 170 | 0.0 | 2.0 | 0.02 | 0.03 | 0.03 | 94 | 1018.3 |
| 20260906132003 | 69 | 169 | 0.0 | 2.0 | 0.02 | 0.03 | 0.03 | 94 | 1018.5 |
| 20260906131503 | 69 | 153 | 0.0 | 1.0 | 0.03 | 0.03 | 0.03 | 94 | 1018.4 |
| 20260906131003 | 69 | 184 | 0.0 | 3.0 | 0.03 | 0.03 | 0.03 | 94 | 1018.2 |
| 20260906130503 | 69 | 182 | 0.0 | 3.0 | 0.03 | 0.03 | 0.03 | 94 | 1018.1 |
| 20260906130003 | 69 | 178 | 0.0 | 2.0 | 0.03 | 0.03 | 0.03 | 94 | 1018.1 |
| 20260906125503 | 69 | 0 | 0.0 | 0.0 | 0.03 | 0.03 | 0.03 | 94 | 1017.9 |
| 20260906125003 | 69 | 0 | 0.0 | 0.0 | 0.03 | 0.03 | 0.03 | 94 | 1017.8 |
| 20260906124503 | 69 | 0 | 0.0 | 0.0 | 0.03 | 0.03 | 0.03 | 94 | 1017.6 |
| 20260906124003 | 69 | 0 | 0.0 | 0.0 | 0.03 | 0.03 | 0.03 | 93 | 1017.7 |
| 20260906123503 | 69 | 0 | 0.0 | 0.0 | 0.02 | 0.02 | 0.02 | 93 | 1017.5 |
| 20260906123003 | 69 | 0 | 0.0 | 0.0 | 0.02 | 0.02 | 0.02 | 93 | 1017.5 |
| 20260906122503 | 69 | 0 | 0.0 | 0.0 | 0.01 | 0.01 | 0.01 | 93 | 1017.8 |
| 20260906122003 | 69 | 0 | 0.0 | 0.0 | 0.01 | 0.01 | 0.01 | 93 | 1018.1 |
| 20260906121503 | 69 | 0 | 0.0 | 0.0 | 0.00 | 0.00 | 0.00 | 92 | 1018.2 |
| 20260906121003 | 69 | 0 | 0.0 | 0.0 | 0.00 | 0.00 | 0.00 | 92 | 1018.2 |
| 20260906120503 | 68 | 0 | 0.0 | 0.0 | 0.00 | 0.00 | 0.00 | 92 | 1018.3 |
| 20260906120003 | 68 | 0 | 0.0 | 0.0 | 0.00 | 0.00 | 0.00 | 92 | 1018.3 |
| 20260906115503 | 68 | 0 | 0.0 | 0.0 | 0.00 | 0.00 | 0.00 | 92 | 1018.4 |
| 20260906115003 | 68 | 0 | 0.0 | 0.0 | 0.00 | 0.00 | 0.00 | 91 | 1018.2 |
| 20260906114503 | 69 | 0 | 0.0 | 0.0 | 0.00 | 0.00 | 0.00 | 91 | 1018.2 |
| 20260906114003 | 69 | 0 | 0.0 | 0.0 | 0.00 | 0.00 | 0.00 | 91 | 1018.1 |
| 20260906113503 | 69 | 0 | 0.0 | 0.0 | 0.00 | 0.00 | 0.00 | 91 | 1018.1 |
| 20260906113003 | 69 | 0 | 0.0 | 0.0 | 0.00 | 0.00 | 0.00 | 91 | 1018.1 |
| 20260906112503 | 69 | 0 | 0.0 | 0.0 | 0.00 | 0.00 | 0.00 | 91 | 1018.1 |
| 20260906112003 | 69 | 0 | 0.0 | 0.0 | 0.00 | 0.00 | 0.00 | 91 | 1018.2 |
| 20260906111503 | 69 | 0 | 0.0 | 0.0 | 0.00 | 0.00 | 0.00 | 91 | 1018.2 |
| 20260906111003 | 69 | 0 | 0.0 | 0.0 | 0.00 | 0.00 | 0.00 | 91 | 1018.2 |
| 20260906110503 | 69 | 0 | 0.0 | 0.0 | 0.00 | 0.00 | 0.00 | 91 | 1018.2 |
| 20260906110003 | 69 | 0 | 0.0 | 0.0 | 0.00 | 0.00 | 0.00 | 90 | 1018.1 |
| 20260906105503 | 69 | 5 | 0.0 | 2.0 | 0.00 | 0.00 | 0.00 | 90 | 1017.9 |
| 20260906105003 | 69 | 5 | 0.0 | 2.0 | 0.00 | 0.00 | 0.00 | 90 | 1017.9 |
| 20260906104503 | 69 | 40 | 0.0 | 2.0 | 0.00 | 0.00 | 0.00 | 90 | 1017.9 |
| 20260906104003 | 69 | 43 | 0.0 | 2.0 | 0.00 | 0.00 | 0.00 | 89 | 1017.8 |
| 20260906103503 | 69 | 31 | 1.0 | 4.0 | 0.00 | 0.00 | 0.00 | 89 | 1017.7 |
| 20260906103003 | 69 | 26 | 0.0 | 4.0 | 0.00 | 0.00 | 0.00 | 88 | 1017.7 |
| 20260906102503 | 70 | 33 | 0.0 | 2.0 | 0.00 | 0.00 | 0.00 | 87 | 1017.8 |
| 20260906102003 | 70 | 37 | 0.0 | 3.0 | 0.00 | 0.00 | 0.00 | 87 | 1017.7 |
| 20260906101503 | 70 | 27 | 0.0 | 4.0 | 0.00 | 0.00 | 0.00 | 86 | 1017.8 |
| 20260906101003 | 70 | 33 | 1.0 | 4.0 | 0.00 | 0.00 | 0.00 | 85 | 1017.5 |
| 20260906100503 | 71 | 43 | 0.0 | 4.0 | 0.00 | 0.00 | 0.00 | 84 | 1017.2 |
| 20260906100003 | 71 | 24 | 1.0 | 4.0 | 0.00 | 0.00 | 0.00 | 83 | 1017.2 |
| 20260906095503 | 72 | 27 | 1.0 | 5.0 | 0.00 | 0.00 | 0.00 | 82 | 1017.4 |
| 20260906095003 | 72 | 34 | 2.0 | 7.0 | 0.00 | 0.00 | 0.00 | 80 | 1017.3 |
| 20260906094503 | 73 | 27 | 3.0 | 7.0 | 0.00 | 0.00 | 0.00 | 77 | 1017.1 |
| 20260906094003 | 75 | 348 | 4.0 | 10.0 | 0.00 | 0.00 | 0.00 | 74 | 1017.1 |
| 20260906093503 | 75 | 329 | 4.0 | 10.0 | 0.00 | 0.00 | 0.00 | 72 | 1017.1 |
| 20260906093003 | 75 | 330 | 5.0 | 12.0 | 0.00 | 0.00 | 0.00 | 72 | 1016.9 |
| 20260906092503 | 76 | 323 | 6.0 | 12.0 | 0.00 | 0.00 | 0.00 | 71 | 1016.8 |
| 20260906092003 | 77 | 302 | 3.0 | 10.0 | 0.00 | 0.00 | 0.00 | 69 | 1016.7 |
| 20260906091503 | 77 | 218 | 2.0 | 8.0 | 0.00 | 0.00 | 0.00 | 66 | 1016.3 |
| 20260906091003 | 77 | 200 | 4.0 | 8.0 | 0.00 | 0.00 | 0.00 | 66 | 1016.2 |
| 20260906090503 | 77 | 195 | 4.0 | 9.0 | 0.00 | 0.00 | 0.00 | 66 | 1016.1 |
| 20260906090003 | 77 | 186 | 4.0 | 9.0 | 0.00 | 0.00 | 0.00 | 67 | 1016.0 |
| 20260906085503 | 77 | 180 | 5.0 | 10.0 | 0.00 | 0.00 | 0.00 | 67 | 1015.9 |
| 20260906085003 | 77 | 180 | 5.0 | 12.0 | 0.00 | 0.00 | 0.00 | 66 | 1015.9 |
| 20260906084503 | 77 | 179 | 5.0 | 12.0 | 0.00 | 0.00 | 0.00 | 65 | 1015.8 |
| 20260906084003 | 77 | 178 | 5.0 | 10.0 | 0.00 | 0.00 | 0.00 | 65 | 1015.8 |
| 20260906083503 | 77 | 173 | 4.0 | 12.0 | 0.00 | 0.00 | 0.00 | 65 | 1015.8 |
| 20260906083003 | 77 | 173 | 5.0 | 14.0 | 0.00 | 0.00 | 0.00 | 65 | 1015.8 |
| 20260906082503 | 77 | 178 | 4.0 | 14.0 | 0.00 | 0.00 | 0.00 | 65 | 1015.8 |
| 20260906082003 | 77 | 178 | 4.0 | 9.0 | 0.00 | 0.00 | 0.00 | 65 | 1015.8 |
| 20260906081503 | 77 | 173 | 5.0 | 12.0 | 0.00 | 0.00 | 0.00 | 65 | 1015.9 |
| 20260906081003 | 77 | 173 | 5.0 | 12.0 | 0.00 | 0.00 | 0.00 | 65 | 1015.8 |
| 20260906080503 | 77 | 176 | 5.0 | 12.0 | 0.00 | 0.00 | 0.00 | 65 | 1015.9 |
| 20260906080003 | 77 | 176 | 6.0 | 13.0 | 0.00 | 0.00 | 0.00 | 65 | 1015.8 |
| 20260906075503 | 77 | 176 | 6.0 | 13.0 | 0.00 | 0.00 | 0.00 | 65 | 1015.9 |
| 20260906075003 | 77 | 178 | 6.0 | 16.0 | 0.00 | 0.00 | 0.00 | 65 | 1015.9 |
| 20260906074503 | 77 | 177 | 6.0 | 16.0 | 0.00 | 0.00 | 0.00 | 65 | 1016.0 |
| 20260906074003 | 78 | 171 | 5.0 | 12.0 | 0.00 | 0.00 | 0.00 | 64 | 1016.1 |
| 20260906073503 | 78 | 168 | 4.0 | 11.0 | 0.00 | 0.00 | 0.00 | 64 | 1016.1 |
| 20260906073003 | 78 | 169 | 4.0 | 10.0 | 0.00 | 0.00 | 0.00 | 63 | 1016.1 |
| 20260906072503 | 78 | 169 | 5.0 | 12.0 | 0.00 | 0.00 | 0.00 | 63 | 1016.2 |
| 20260906072003 | 79 | 173 | 6.0 | 14.0 | 0.00 | 0.00 | 0.00 | 62 | 1016.2 |
| 20260906071503 | 79 | 174 | 6.0 | 17.0 | 0.00 | 0.00 | 0.00 | 62 | 1016.0 |
| 20260906071003 | 79 | 175 | 5.0 | 17.0 | 0.00 | 0.00 | 0.00 | 62 | 1016.0 |
| 20260906070503 | 79 | 175 | 5.0 | 13.0 | 0.00 | 0.00 | 0.00 | 62 | 1016.0 |
| 20260906070003 | 79 | 171 | 4.0 | 9.0 | 0.00 | 0.00 | 0.00 | 62 | 1016.1 |
| 20260906065503 | 78 | 171 | 3.0 | 11.0 | 0.00 | 0.00 | 0.00 | 62 | 1016.2 |
| 20260906065003 | 78 | 170 | 2.0 | 11.0 | 0.00 | 0.00 | 0.00 | 63 | 1016.3 |
| 20260906064503 | 78 | 170 | 3.0 | 11.0 | 0.00 | 0.00 | 0.00 | 63 | 1016.4 |
| 20260906064003 | 78 | 170 | 3.0 | 11.0 | 0.00 | 0.00 | 0.00 | 63 | 1016.4 |
| 20260906063503 | 78 | 167 | 3.0 | 9.0 | 0.00 | 0.00 | 0.00 | 63 | 1016.4 |
| 20260906063003 | 78 | 163 | 3.0 | 8.0 | 0.00 | 0.00 | 0.00 | 64 | 1016.4 |
| 20260906062503 | 78 | 166 | 2.0 | 8.0 | 0.00 | 0.00 | 0.00 | 64 | 1016.6 |
| 20260906062003 | 78 | 172 | 1.0 | 5.0 | 0.00 | 0.00 | 0.00 | 64 | 1016.6 |
| 20260906061503 | 78 | 169 | 1.0 | 7.0 | 0.00 | 0.00 | 0.00 | 65 | 1016.7 |
| 20260906061003 | 78 | 166 | 1.0 | 7.0 | 0.00 | 0.00 | 0.00 | 65 | 1016.5 |
| 20260906060503 | 77 | 168 | 1.0 | 4.0 | 0.00 | 0.00 | 0.00 | 65 | 1016.5 |
| 20260906060003 | 77 | 165 | 1.0 | 4.0 | 0.00 | 0.00 | 0.00 | 65 | 1016.4 |
| 20260906055503 | 77 | 152 | 1.0 | 5.0 | 0.00 | 0.00 | 0.00 | 65 | 1016.5 |
| 20260906055003 | 77 | 162 | 0.0 | 5.0 | 0.00 | 0.00 | 0.00 | 66 | 1016.6 |
| 20260906054503 | 77 | 175 | 1.0 | 6.0 | 0.00 | 0.00 | 0.00 | 66 | 1016.5 |
| 20260906054003 | 77 | 169 | 2.0 | 6.0 | 0.00 | 0.00 | 0.00 | 66 | 1016.3 |
| 20260906053503 | 77 | 166 | 2.0 | 5.0 | 0.00 | 0.00 | 0.00 | 66 | 1016.2 |
| 20260906053003 | 77 | 167 | 1.0 | 5.0 | 0.00 | 0.00 | 0.00 | 66 | 1016.2 |
| 20260906052503 | 77 | 151 | 1.0 | 4.0 | 0.00 | 0.00 | 0.00 | 65 | 1016.1 |
| 20260906052003 | 77 | 164 | 1.0 | 5.0 | 0.00 | 0.00 | 0.00 | 65 | 1016.1 |
| 20260906051503 | 78 | 171 | 1.0 | 5.0 | 0.00 | 0.00 | 0.00 | 65 | 1016.0 |
| 20260906051003 | 78 | 164 | 1.0 | 7.0 | 0.00 | 0.00 | 0.00 | 65 | 1016.0 |
| 20260906050503 | 78 | 165 | 1.0 | 7.0 | 0.00 | 0.00 | 0.00 | 64 | 1015.9 |
| 20260906050003 | 78 | 137 | 0.0 | 2.0 | 0.00 | 0.00 | 0.00 | 64 | 1016.0 |
| 20260906045503 | 78 | 126 | 0.0 | 2.0 | 0.00 | 0.00 | 0.00 | 63 | 1016.2 |
| 20260906045003 | 78 | 144 | 0.0 | 5.0 | 0.00 | 0.00 | 0.00 | 63 | 1016.1 |
| 20260906044503 | 79 | 145 | 0.0 | 5.0 | 0.00 | 0.00 | 0.00 | 62 | 1016.1 |
| 20260906044003 | 79 | 144 | 0.0 | 1.0 | 0.00 | 0.00 | 0.00 | 62 | 1016.0 |
| 20260906043503 | 79 | 149 | 0.0 | 2.0 | 0.00 | 0.00 | 0.00 | 61 | 1016.1 |
| 20260906043003 | 79 | 161 | 0.0 | 2.0 | 0.00 | 0.00 | 0.00 | 61 | 1016.2 |
| 20260906042503 | 80 | 152 | 0.0 | 5.0 | 0.00 | 0.00 | 0.00 | 61 | 1016.2 |
| 20260906042003 | 80 | 154 | 1.0 | 5.0 | 0.00 | 0.00 | 0.00 | 61 | 1016.1 |
| 20260906041503 | 80 | 161 | 1.0 | 7.0 | 0.00 | 0.00 | 0.00 | 60 | 1016.0 |
| 20260906041003 | 80 | 168 | 1.0 | 7.0 | 0.00 | 0.00 | 0.00 | 60 | 1015.9 |
| 20260906040503 | 80 | 175 | 1.0 | 7.0 | 0.00 | 0.00 | 0.00 | 60 | 1015.9 |
| 20260906040003 | 80 | 172 | 1.0 | 9.0 | 0.00 | 0.00 | 0.00 | 60 | 1016.0 |
| 20260906035503 | 80 | 168 | 2.0 | 9.0 | 0.00 | 0.00 | 0.00 | 60 | 1016.0 |
| 20260906035003 | 79 | 170 | 2.0 | 6.0 | 0.00 | 0.00 | 0.00 | 60 | 1015.9 |
| 20260906034503 | 79 | 171 | 2.0 | 7.0 | 0.00 | 0.00 | 0.00 | 60 | 1015.8 |
| 20260906034003 | 79 | 167 | 1.0 | 7.0 | 0.00 | 0.00 | 0.00 | 60 | 1015.8 |
| 20260906033503 | 79 | 158 | 0.0 | 4.0 | 0.00 | 0.00 | 0.00 | 60 | 1015.9 |
| 20260906033003 | 80 | 156 | 0.0 | 4.0 | 0.00 | 0.00 | 0.00 | 60 | 1016.0 |
| 20260906032503 | 80 | 150 | 0.0 | 4.0 | 0.00 | 0.00 | 0.00 | 60 | 1016.0 |
| 20260906032003 | 80 | 139 | 1.0 | 2.0 | 0.00 | 0.00 | 0.00 | 60 | 1016.0 |
| 20260906031503 | 80 | 148 | 1.0 | 6.0 | 0.00 | 0.00 | 0.00 | 60 | 1016.0 |
| 20260906031003 | 80 | 152 | 0.0 | 6.0 | 0.00 | 0.00 | 0.00 | 59 | 1016.0 |
| 20260906030503 | 80 | 149 | 0.0 | 3.0 | 0.00 | 0.00 | 0.00 | 59 | 1015.9 |
| 20260906030003 | 81 | 150 | 0.0 | 4.0 | 0.00 | 0.00 | 0.00 | 59 | 1016.0 |
| 20260906025503 | 81 | 159 | 1.0 | 5.0 | 0.00 | 0.00 | 0.00 | 59 | 1015.9 |
| 20260906025003 | 81 | 156 | 1.0 | 5.0 | 0.00 | 0.00 | 0.00 | 59 | 1015.7 |
| 20260906024503 | 81 | 126 | 0.0 | 5.0 | 0.00 | 0.00 | 0.00 | 59 | 1015.7 |
| 20260906024003 | 82 | 155 | 1.0 | 5.0 | 0.00 | 0.00 | 0.00 | 58 | 1015.6 |
| 20260906023503 | 82 | 158 | 1.0 | 5.0 | 0.00 | 0.00 | 0.00 | 58 | 1015.6 |
| 20260906023003 | 82 | 154 | 1.0 | 7.0 | 0.00 | 0.00 | 0.00 | 58 | 1015.6 |
| 20260906022503 | 82 | 151 | 2.0 | 7.0 | 0.00 | 0.00 | 0.00 | 58 | 1015.6 |
| 20260906022003 | 83 | 158 | 3.0 | 9.0 | 0.00 | 0.00 | 0.00 | 57 | 1015.6 |
| 20260906021503 | 83 | 163 | 2.0 | 9.0 | 0.00 | 0.00 | 0.00 | 57 | 1015.6 |
| 20260906021003 | 83 | 158 | 1.0 | 7.0 | 0.00 | 0.00 | 0.00 | 56 | 1015.5 |
| 20260906020503 | 84 | 138 | 0.0 | 4.0 | 0.00 | 0.00 | 0.00 | 55 | 1015.5 |
| 20260906020003 | 84 | 137 | 0.0 | 3.0 | 0.00 | 0.00 | 0.00 | 55 | 1015.4 |
| 20260906015503 | 84 | 138 | 1.0 | 7.0 | 0.00 | 0.00 | 0.00 | 55 | 1015.3 |
| 20260906015003 | 84 | 138 | 1.0 | 7.0 | 0.00 | 0.00 | 0.00 | 54 | 1015.4 |
| 20260906014503 | 84 | 150 | 1.0 | 7.0 | 0.00 | 0.00 | 0.00 | 54 | 1015.3 |
| 20260906014003 | 84 | 149 | 1.0 | 7.0 | 0.00 | 0.00 | 0.00 | 54 | 1015.3 |
| 20260906013503 | 85 | 145 | 1.0 | 6.0 | 0.00 | 0.00 | 0.00 | 53 | 1015.3 |
| 20260906013003 | 85 | 150 | 0.0 | 2.0 | 0.00 | 0.00 | 0.00 | 53 | 1015.3 |
| 20260906012503 | 86 | 149 | 0.0 | 2.0 | 0.00 | 0.00 | 0.00 | 52 | 1015.4 |
| 20260906012003 | 86 | 125 | 0.0 | 2.0 | 0.00 | 0.00 | 0.00 | 52 | 1015.1 |
| 20260906011503 | 86 | 135 | 1.0 | 5.0 | 0.00 | 0.00 | 0.00 | 51 | 1015.0 |
| 20260906011003 | 87 | 139 | 1.0 | 5.0 | 0.00 | 0.00 | 0.00 | 50 | 1014.9 |
| 20260906010503 | 87 | 143 | 2.0 | 6.0 | 0.00 | 0.00 | 0.00 | 50 | 1014.7 |
| 20260906010004 | 87 | 144 | 1.0 | 6.0 | 0.00 | 0.00 | 0.00 | 49 | 1014.6 |
| 20260906005503 | 88 | 137 | 1.0 | 7.0 | 0.00 | 0.00 | 0.00 | 48 | 1014.6 |
| 20260906005003 | 88 | 138 | 2.0 | 7.0 | 0.00 | 0.00 | 0.00 | 48 | 1014.5 |
| 20260906004503 | 88 | 144 | 3.0 | 7.0 | 0.00 | 0.00 | 0.00 | 47 | 1014.4 |
| 20260906004003 | 89 | 150 | 3.0 | 14.0 | 0.00 | 0.00 | 0.00 | 47 | 1014.4 |
| 20260906003503 | 90 | 148 | 4.0 | 16.0 | 0.00 | 0.00 | 0.00 | 46 | 1014.5 |
| 20260906003003 | 91 | 149 | 5.0 | 19.0 | 0.00 | 0.00 | 0.00 | 44 | 1014.4 |
| 20260906002503 | 92 | 154 | 4.0 | 19.0 | 0.00 | 0.00 | 0.00 | 42 | 1014.3 |
| 20260906002003 | 93 | 161 | 4.0 | 11.0 | 0.00 | 0.00 | 0.00 | 38 | 1014.1 |
| 20260906001503 | 93 | 163 | 4.0 | 14.0 | 0.00 | 0.00 | 0.00 | 37 | 1014.1 |
| 20260906001003 | 94 | 157 | 3.0 | 14.0 | 0.00 | 0.00 | 0.00 | 37 | 1014.2 |
| 20260906000503 | 94 | 157 | 3.0 | 14.0 | 0.00 | 0.00 | 0.00 | 37 | 1014.2 |
| 20260906000003 | 95 | 166 | 4.0 | 13.0 | 0.00 | 0.00 | 0.00 | 36 | 1014.1 |
| 20260905235503 | 95 | 164 | 5.0 | 13.0 | 0.00 | 0.00 | 0.00 | 36 | 1014.1 |
| 20260905235003 | 95 | 153 | 4.0 | 13.0 | 0.00 | 0.00 | 0.00 | 36 | 1014.2 |
| 20260905234503 | 95 | 154 | 5.0 | 14.0 | 0.00 | 0.00 | 0.00 | 36 | 1014.2 |
| 20260905234003 | 95 | 160 | 5.0 | 14.0 | 0.00 | 0.00 | 0.00 | 35 | 1014.0 |
| 20260905233503 | 95 | 161 | 5.0 | 15.0 | 0.00 | 0.00 | 0.00 | 35 | 1014.1 |
| 20260905233003 | 95 | 154 | 4.0 | 15.0 | 0.00 | 0.00 | 0.00 | 35 | 1014.1 |
| 20260905232503 | 95 | 159 | 5.0 | 14.0 | 0.00 | 0.00 | 0.00 | 36 | 1014.2 |
| 20260905232003 | 95 | 165 | 6.0 | 12.0 | 0.00 | 0.00 | 0.00 | 36 | 1014.1 |
| 20260905231503 | 95 | 163 | 6.0 | 13.0 | 0.00 | 0.00 | 0.00 | 36 | 1014.0 |
| 20260905231003 | 95 | 159 | 5.0 | 14.0 | 0.00 | 0.00 | 0.00 | 37 | 1013.9 |
| 20260905230503 | 95 | 155 | 5.0 | 18.0 | 0.00 | 0.00 | 0.00 | 37 | 1013.9 |
| 20260905230003 | 95 | 158 | 4.0 | 18.0 | 0.00 | 0.00 | 0.00 | 37 | 1013.8 |
| 20260905225503 | 96 | 156 | 3.0 | 14.0 | 0.00 | 0.00 | 0.00 | 37 | 1013.7 |
| 20260905225003 | 96 | 150 | 2.0 | 11.0 | 0.00 | 0.00 | 0.00 | 37 | 1013.7 |
| 20260905224503 | 96 | 158 | 3.0 | 9.0 | 0.00 | 0.00 | 0.00 | 37 | 1013.8 |
| 20260905224003 | 96 | 140 | 2.0 | 9.0 | 0.00 | 0.00 | 0.00 | 36 | 1013.8 |
| 20260905223503 | 97 | 112 | 2.0 | 8.0 | 0.00 | 0.00 | 0.00 | 36 | 1013.8 |
| 20260905223003 | 97 | 121 | 2.0 | 5.0 | 0.00 | 0.00 | 0.00 | 37 | 1013.7 |
| 20260905222503 | 97 | 123 | 2.0 | 8.0 | 0.00 | 0.00 | 0.00 | 37 | 1013.8 |
| 20260905222003 | 97 | 121 | 2.0 | 8.0 | 0.00 | 0.00 | 0.00 | 36 | 1013.7 |
| 20260905221503 | 98 | 130 | 2.0 | 9.0 | 0.00 | 0.00 | 0.00 | 36 | 1013.7 |
| 20260905221003 | 98 | 140 | 2.0 | 9.0 | 0.00 | 0.00 | 0.00 | 36 | 1013.9 |
| 20260905220503 | 98 | 134 | 2.0 | 14.0 | 0.00 | 0.00 | 0.00 | 36 | 1013.9 |
| 20260905220003 | 97 | 148 | 4.0 | 15.0 | 0.00 | 0.00 | 0.00 | 35 | 1014.0 |
| 20260905215503 | 97 | 155 | 4.0 | 15.0 | 0.00 | 0.00 | 0.00 | 35 | 1014.0 |
| 20260905215003 | 98 | 157 | 3.0 | 12.0 | 0.00 | 0.00 | 0.00 | 35 | 1014.0 |
| 20260905214503 | 97 | 158 | 3.0 | 12.0 | 0.00 | 0.00 | 0.00 | 33 | 1014.1 |
| 20260905214003 | 97 | 156 | 4.0 | 17.0 | 0.00 | 0.00 | 0.00 | 34 | 1014.2 |
| 20260905213503 | 97 | 160 | 5.0 | 17.0 | 0.00 | 0.00 | 0.00 | 36 | 1014.2 |
| 20260905213003 | 97 | 153 | 3.0 | 10.0 | 0.00 | 0.00 | 0.00 | 35 | 1014.2 |
| 20260905212503 | 97 | 142 | 2.0 | 8.0 | 0.00 | 0.00 | 0.00 | 35 | 1014.3 |
| 20260905212003 | 97 | 147 | 3.0 | 12.0 | 0.00 | 0.00 | 0.00 | 33 | 1014.5 |
| 20260905211503 | 97 | 149 | 3.0 | 14.0 | 0.00 | 0.00 | 0.00 | 34 | 1014.6 |
| 20260905211003 | 97 | 149 | 4.0 | 18.0 | 0.00 | 0.00 | 0.00 | 34 | 1014.6 |
| 20260905210503 | 97 | 155 | 5.0 | 18.0 | 0.00 | 0.00 | 0.00 | 34 | 1014.6 |
| 20260905210003 | 97 | 153 | 3.0 | 12.0 | 0.00 | 0.00 | 0.00 | 35 | 1014.7 |
| 20260905205503 | 97 | 144 | 3.0 | 9.0 | 0.00 | 0.00 | 0.00 | 35 | 1014.8 |
| 20260905205003 | 97 | 150 | 4.0 | 13.0 | 0.00 | 0.00 | 0.00 | 33 | 1014.9 |
| 20260905204503 | 97 | 152 | 5.0 | 13.0 | 0.00 | 0.00 | 0.00 | 32 | 1014.9 |
| 20260905204003 | 98 | 160 | 5.0 | 12.0 | 0.00 | 0.00 | 0.00 | 32 | 1015.0 |
| 20260905203503 | 97 | 160 | 4.0 | 12.0 | 0.00 | 0.00 | 0.00 | 33 | 1015.1 |
| 20260905203003 | 97 | 152 | 3.0 | 14.0 | 0.00 | 0.00 | 0.00 | 32 | 1015.2 |
| 20260905202503 | 97 | 140 | 2.0 | 14.0 | 0.00 | 0.00 | 0.00 | 33 | 1015.1 |
| 20260905202003 | 97 | 103 | 1.0 | 4.0 | 0.00 | 0.00 | 0.00 | 36 | 1015.2 |